Location: Newark
(34.0131°N, 4.3314°W)
Time: 23:02:06
(UTC+00:00)

Transit 2A Rocket - Pass Details

Date: 30 October 2019
Orbit: 594 x 909 km, 66.7° (Epoch: 11 November)

Event Time Altitude Azimuth Distance (km) Brightness Sun altitude
Rises 03:07:26 0° 229° (SW) 3,221 - -43.3°
Reaches altitude 10° 03:10:10 10° 240° (WSW) 2,242 - -42.7°
Maximum altitude 03:14:38 31° 302° (WNW) 1,226 - -41.8°
Drops below altitude 10° 03:18:48 10° 4° (N) 2,079 - -41.0°
Sets 03:21:15 0° 15° (NNE) 2,950 - -40.5°
